STARLINK-37637, 69026

Orbit data source: Space-Track

STARLINK-37637, 69026 is a payload satellite owned by SpaceX/Seattle (US) in SSO that was launched on Wed, 06 May 2026 UTC via an FALCON 9 launch vehicle from the Air Force Western Test Range (AFWTR). Payload-class satellites include a variety of spacecraft equipped with specific instruments for various scientific and technological missions. These include communications satellites like Starlink; space stations such as the ISS; scientific satellites like the Hubble; Earth observation satellites from companies like Planet Labs, Umbra, and HawkEye 360; GPS; miniature CubeSats for education and research; and military/defense satellites.

Loading next visibility...
Identifier
69026, 2026-101B
Orbit
SSO
Country
Flag of USUS
Related business
Manufacturer
SpaceX/Seattle
Mission
Operational spacecraft
Bus & Motor
STARLINK V2MO, Unknown motor
Mass
575 kg wet, ~530 kg dry
Launch date (UTC)
2026-05-06 (1 month ago)
Launch vehicle
FALCON 9
Launch site
Air Force Western Test Range (AFWTR)
Object type
Payload
Rocket body
Debris
Shape & HBR
Unknown shape, 14.5 m
Radar Cross Section
Large (>1 m²)

Expand to show TLE details & history
Last TLE update: 13 hours ago

TLE from 13 hours ago
0 STARLINK-37637
1 69026U 26101B   26168.51177270 -.00000155  00000-0 -24720-5 0  9999
2 69026  97.2840  23.3699 0001696  87.7122 272.4315 15.33415122  6621
Epoch: 2026-06-17T12:16Z
TLE epoch observation values (Epoch: 2026-06-17T12:16:57.161Z)
Latitude
-0°
Longitude
-66.63667°
Altitude
468.695 km
Speed
7.632 km/s
True Right ascension
01h 33m 28s
True Declination
0° 00' 00"
Sunlit
Object was in daylight at epoch
Visualization orbit readout
Latitude
Unknown
Longitude
Unknown
Altitude
Unknown
Speed
Unknown
Apparent Right ascension
Unknown
Apparent Declination
Unknown
Sunlit
N/A
Visualization observer readout
Local Sidereal Time
12:19:24
Azimuth
Unknown
Elevation
Unknown
Doppler factor
Unknown
Orbital elements
Apogee altitude
463.735 km
Perigee altitude
461.415 km
Semi-major axis
6,840.712 km
Eccentricity
0.00017
Inclination
97.284°
RAAN
23.3699°
Arg. of periapsis
87.7122°
True anomaly
272.41208°
Mean anomaly
272.4315°
Eccentric anomaly
272.42179°
Mean motion
3.83611 °/min
Orbital period
93.85 mins
BSTAR
-0.000002472
Loading maneuver chart data...
Computing Atmospheric mass density...
Loading historical data...
Loading historical data...
Loading historical data...
Loading historical data...
Loading historical data...
Loading historical data...
Loading historical data...

Documentation

Showing up to 5 results
|